Location: Casteau
(50.5142°N, 4.0161°E)
Time: 05:57:50
(UTC+00:00)

Tiros 1 despin weight - All Passes

Search period start: 31 July 2021 00:00
Search period end: 10 August 2021 00:00
Orbit: 593 x 642 km, 48.2° (Epoch: 30 July)

Date Brightness Start Highest point End Pass type
(mag) Time Alt. Az. Time Alt. Az. Time Alt. Az.
31 Jul - 12:23:01 10° SSE 12:25:06 13° SE 12:27:10 10° ESE daylight
31 Jul - 14:01:25 10° SW 14:05:45 38° SSE 14:10:06 10° E daylight
31 Jul - 15:42:20 10° WSW 15:47:00 66° S 15:51:38 10° E daylight
31 Jul - 17:23:47 10° W 17:28:22 53° SSW 17:32:53 10° ESE daylight
31 Jul - 19:05:41 10° W 19:09:19 23° SW 19:12:55 10° SSE daylight
01 Aug - 12:37:28 10° SSW 12:40:56 21° SE 12:44:26 10° E daylight
01 Aug - 14:17:19 10° WSW 14:21:51 51° SSE 14:26:25 10° E daylight
01 Aug - 15:58:33 10° W 16:03:13 67° S 16:07:52 10° ESE daylight
01 Aug - 17:40:05 10° W 17:44:29 41° SSW 17:48:51 10° SE daylight
01 Aug - 19:22:45 10° WSW 19:25:11 14° SW 19:27:36 10° S daylight
02 Aug - 12:52:47 10° SSW 12:56:53 31° SSE 13:01:01 10° E daylight
02 Aug - 14:33:24 10° WSW 14:38:02 62° S 14:42:40 10° E daylight
02 Aug - 16:14:47 10° W 16:19:25 60° S 16:24:02 10° ESE daylight
02 Aug - 17:56:29 10° W 18:00:31 29° SSW 18:04:31 10° SSE daylight
03 Aug - 11:29:24 10° S 11:32:11 16° SE 11:34:59 10° ESE daylight
03 Aug - 13:08:31 10° SW 13:12:57 43° SSE 13:17:24 10° E daylight
03 Aug - 14:49:35 10° W 14:54:14 67° S 14:58:54 10° E daylight
03 Aug - 16:31:03 10° W 16:35:35 49° SSW 16:40:05 10° SE daylight
03 Aug - 18:13:10 10° W 18:16:27 19° SW 18:19:43 10° S daylight
04 Aug - 11:44:18 10° SSW 11:48:04 25° SSE 11:51:53 10° E daylight
04 Aug - 13:24:30 10° WSW 13:29:05 56° SSE 13:33:41 10° E daylight
04 Aug - 15:05:48 10° W 15:10:28 65° S 15:15:07 10° ESE daylight
04 Aug - 16:47:23 10° W 16:51:41 36° SSW 16:55:56 10° SE daylight
04 Aug - 18:30:48 10° WSW 18:32:16 11° SW 18:33:44 10° SSW daylight
05 Aug - 10:22:01 10° SSE 10:23:28 11° SE 10:24:56 10° ESE daylight
05 Aug - 11:59:49 10° SW 12:04:04 36° SSE 12:08:21 10° E daylight
05 Aug - 13:40:38 10° WSW 13:45:17 65° S 13:49:56 10° E daylight
05 Aug - 15:22:03 10° W 15:26:39 56° SSW 15:31:15 10° ESE daylight
05 Aug - 17:03:52 10° W 17:07:40 25° SSW 17:11:27 10° SSE daylight
06 Aug - 10:36:02 10° S 10:39:17 19° SE 10:42:34 10° E daylight
06 Aug - 12:15:40 10° SW 12:20:09 49° SSE 12:24:41 10° E daylight
06 Aug - 13:56:50 10° W 14:01:30 67° S 14:06:10 10° E daylight
06 Aug - 15:38:20 10° W 15:42:47 43° SSW 15:47:13 10° SE daylight
06 Aug - 17:20:46 10° WSW 17:23:33 16° SW 17:26:21 10° S daylight
07 Aug - 10:51:14 10° SSW 10:55:13 29° SSE 10:59:15 10° E daylight
07 Aug - 12:31:43 10° WSW 12:36:19 60° S 12:40:57 10° E daylight
07 Aug - 14:13:04 10° W 14:17:42 62° S 14:22:21 10° ESE daylight
07 Aug - 15:54:42 10° W 15:58:51 31° SSW 16:02:57 10° SSE daylight
08 Aug - 09:28:09 10° S 09:30:33 14° SE 09:32:59 10° ESE daylight
08 Aug - 11:06:54 10° SW 11:11:15 41° SSE 11:15:39 10° E daylight
08 Aug - 12:47:53 10° WSW 12:52:31 67° S 12:57:11 10° E daylight
08 Aug - 14:29:20 10° W 14:33:53 51° SSW 14:38:25 10° ESE daylight
08 Aug - 16:11:18 10° W 16:14:48 21° SW 16:18:16 10° SSE daylight
09 Aug - 09:42:50 10° SSW 09:46:25 23° SE 09:50:02 10° E daylight
09 Aug - 11:22:51 10° WSW 11:27:22 53° SSE 11:31:57 10° E daylight
09 Aug - 13:04:06 10° W 13:08:44 66° S 13:13:24 10° ESE daylight
09 Aug - 14:45:38 10° W 14:49:59 38° SSW 14:54:19 10° SE daylight
09 Aug - 16:28:34 10° WSW 16:30:38 13° SW 16:32:42 10° SSW daylight
